Greenwood, Nova Scotia

1:26 PM ADT on October 17, 2017 (GMT -0300)
Greenwood

Weather History for CYZX - May, 2013

Change the Weather History Date:

Saturday, May 11, 2013

  Actual Average Record
Temperature  
Mean Temperature 58 °F -  
Max Temperature 68 °F 66 °F 73 °F (2007)
Min Temperature 47 °F 43 °F 39 °F (2003)
Degree Days  
Heating Degree Days 8    
Growing Degree Days 8 (Base 50)    
Moisture  
Dew Point 53 °F    
Average Humidity 84    
Maximum Humidity 100    
Minimum Humidity 45    
Precipitation  
Precipitation 0.39 in 0.11 in - ()
Sea Level Pressure  
Sea Level Pressure 29.96 in    
Wind  
Wind Speed 5 mph ()    
Max Wind Speed 16 mph    
Max Gust Speed 22 mph    
Visibility 8.8 miles    
Events Rain    
Averages and records for this station are not official NWS values.
T = Trace of Precipitation, MM = Missing Value Source: Averaged Metar Reports

Daily Weather History Graph

Daily Weather History Graph

Search for Another Location

Airport or City:

Trip Planner

Search our weather history database for the weather conditions in past years. The results will help you decide how hot, cold, wet, or windy it might be!

Date:

Astronomy

May. 11, 2013 Rise Set
Actual Time 5:55 AM ADT 8:37 PM ADT
Civil Twilight 5:21 AM ADT 9:11 PM ADT
Nautical Twilight 4:39 AM ADT 9:54 PM ADT
Astronomical Twilight 3:50 AM ADT 10:43 PM ADT
Moon 6:58 AM ADT (5/11) 10:16 PM ADT (5/11)
Length of Visible Light 15h 49m
Length of Day
14h 42m
New Moon, 2% of the Moon is Illuminated
May 11
New Moon
May 18
First Quarter
May 25
Full
May 31
Last Quarter
Jun 8
New

Hourly Weather History & Observations

Time (ADT) Temp. Dew Point Humidity Pressure Visibility Wind Dir Wind Speed Gust Speed Precip Events Conditions
12:00 AM 53.6 °F 53.6 °F 100% 30.00 in 9.0 mi Calm Calm - N/A   Overcast
1:00 AM 53.6 °F 53.6 °F 100% 30.02 in 6.0 mi SW 4.6 mph - N/A   Overcast
2:00 AM 53.6 °F 53.6 °F 100% 30.01 in 4.0 mi West 2.3 mph - N/A   Overcast
2:25 AM - - N/A% - 2.5 mi Calm Calm - N/A   Overcast
3:00 AM 53 °F 53 °F 100% 30.00 in 2 mi West 3.5 mph - -   Mist
3:00 AM 53.6 °F 53.6 °F 100% 29.99 in 2.5 mi West 3.5 mph - N/A   Overcast
3:14 AM - - N/A% - 1.0 mi WNW 3.5 mph - N/A   Overcast
4:00 AM 51.8 °F 51.8 °F 100% 30.01 in 1.0 mi West 3.5 mph - N/A   Overcast
5:00 AM 50.0 °F 50.0 °F 100% 30.02 in 1.0 mi North 2.3 mph - N/A   Overcast
6:00 AM 50.0 °F 50.0 °F 100% 30.03 in 1.0 mi West 3.5 mph - N/A   Overcast
7:00 AM 50.0 °F 50.0 °F 100% 30.03 in 0.8 mi NE 2.3 mph - N/A   Overcast
7:29 AM - - N/A% - 1.0 mi NE 2.3 mph - N/A   Overcast
8:00 AM 51.8 °F 51.8 °F 100% 30.02 in 1.0 mi East 5.8 mph - N/A   Overcast
8:29 AM - - N/A% - 1.5 mi NNE 4.6 mph - N/A   Overcast
9:00 AM 53 °F 53 °F 99% 30.02 in 1 mi NE 5.8 mph - -   Mist
9:00 AM 53.6 °F 53.6 °F 100% 30.02 in 1.5 mi NE 5.8 mph - N/A   Overcast
9:32 AM - - N/A% - 3.0 mi ENE 5.8 mph - N/A   Overcast
10:00 AM 57.2 °F 53.6 °F 88% 30.00 in 3.0 mi ENE 4.6 mph - N/A   Mostly Cloudy
10:31 AM - - N/A% - 15.0 mi South 2.3 mph - N/A   Mostly Cloudy
11:00 AM 62.6 °F 53.6 °F 72% 29.98 in 15.0 mi SSE 9.2 mph - N/A   Mostly Cloudy
11:45 AM - - N/A% - 15.0 mi SSE 15.0 mph - N/A   Mostly Cloudy
12:00 PM 66.2 °F 55.4 °F 68% 29.97 in 15.0 mi SSE 16.1 mph - N/A   Mostly Cloudy
1:00 PM 68.0 °F 53.6 °F 60% 29.95 in 15.0 mi SSE 11.5 mph 17.3 mph N/A   Mostly Cloudy
2:00 PM 66.2 °F 51.8 °F 60% 29.93 in 15.0 mi SSE 13.8 mph - N/A   Mostly Cloudy
3:00 PM 68 °F 52 °F 45% 29.92 in 15 mi SSE 12.7 mph - -   Overcast
3:00 PM 68.0 °F 51.8 °F 56% 29.92 in 15.0 mi SSE 15.0 mph - N/A   Overcast
3:43 PM - - N/A% - 15.0 mi South 9.2 mph - N/A Rain Light Rain Showers
4:00 PM 66.2 °F 51.8 °F 60% 29.90 in 15.0 mi South 11.5 mph - N/A Rain Light Rain Showers
5:00 PM 68.0 °F 53.6 °F 60% 29.88 in 15.0 mi South 4.6 mph - N/A Rain Light Rain Showers
6:00 PM 62.6 °F 55.4 °F 77% 29.87 in 15.0 mi SSE 16.1 mph 21.9 mph N/A   Overcast
7:00 PM 57.2 °F 53.6 °F 88% 29.89 in 12.0 mi SSE 9.2 mph - N/A Rain Light Rain Showers
7:51 PM - - N/A% - 15.0 mi South 5.8 mph - N/A   Overcast
8:00 PM 57.2 °F 53.6 °F 88% 29.89 in 15.0 mi South 10.4 mph - N/A   Overcast
9:00 PM 57 °F 52 °F 79% 29.90 in 15 mi South 9.2 mph - -   Partly Cloudy
9:00 PM 57.2 °F 51.8 °F 82% 29.89 in 15.0 mi South 8.1 mph - N/A   Overcast
10:00 PM 57.2 °F 53.6 °F 88% 29.89 in 15.0 mi SSE 3.5 mph - N/A   Overcast
10:19 PM - - N/A% - 12.0 mi SE 6.9 mph - N/A Rain Light Rain Showers
11:00 PM 57.2 °F 53.6 °F 88% 29.85 in 12.0 mi SSE 3.5 mph - N/A Rain Light Rain Showers